Flag for Germany Weather past 2 weeks in Mannheim, Baden-Württemberg, Germany

Now
59 °F

Passing clouds.


Feels Like: 57 °F
Forecast: 33 / 61 °F
Wind: 12 mph from Northwest

Location: Baden Wurttemberg - Neuostheim

Current Time: Apr 28, 2015 at 4:28:25 PM

Latest Report: Apr 28, 2015 at 3:50 PM


Visibility: N/A

Pressure: 30.04 "Hg

Humidity: 31%

Dew point: 28 °F

Location of MannheimLocation

Historic Weather in Mannheim — Graph

°F

Mannheim temperature yesterday

Maximum temperature yesterday: 61 °F (at 10:50 AM)
Minimum temperature yesterday: 48 °F (at 8:50 PM)
Average temperature yesterday: 57 °F

Past Weeks' High & Low Weather Summary

 TemperatureHumidityPressure
High79 °F (Apr 15, 4:20 PM)100% (Apr 27, 6:20 AM)30.45 "Hg (Apr 27, 6:20 AM)
Low37 °F (Apr 23, 5:50 AM)19% (Apr 15, 8:20 PM)29.56 "Hg (Apr 27, 6:20 AM)
Average59 °F49%30.07 "Hg
* Reported Apr 13 3:20 PM — Apr 28 3:20 PM, Mannheim, Weather by CustomWeather, © 2015

Note: Actual official high and low records may vary slightly from our data, if they occured in-between our weather recording intervals... More about our weather records

Advertising

Mannheim weather history for previous 24 hours

 ConditionsComfort  
Time TempWeatherWind HumidityBarometerVisibility
3:20 PM
Tue, Apr 28
57 °FSunny.10 mph31%30.04 "Hg10 mi
2:50 PM59 °FPassing clouds.12 mph31%30.04 "HgN/A
2:20 PM57 °FSunny.10 mph36%30.04 "Hg10 mi
1:50 PM57 °FPassing clouds.12 mph36%30.04 "HgN/A
1:20 PM57 °FScattered clouds.10 mph44%30.01 "HgN/A
12:50 PM54 °FScattered clouds.12 mph51%30.01 "HgN/A
12:20 PM52 °FScattered clouds.15 mph58%30.01 "HgN/A
11:50 AM54 °FBroken clouds.10 mph51%30.01 "HgN/A
11:20 AM54 °FPartly sunny.12 mph54%29.98 "HgN/A
10:50 AM52 °FScattered clouds.12 mph54%29.98 "HgN/A
10:20 AM52 °FScattered clouds.12 mph58%29.98 "HgN/A
9:50 AM50 °FScattered clouds.10 mph67%29.95 "HgN/A
9:20 AM48 °FPartly sunny.12 mph71%29.95 "HgN/A
8:50 AM48 °FOvercast.8 mph71%29.92 "HgN/A
8:20 AM46 °FPassing clouds.9 mph76%29.92 "HgN/A
7:50 AM46 °FBroken clouds.12 mph76%29.89 "HgN/A
7:20 AM46 °FMostly cloudy.12 mph82%29.86 "HgN/A
6:50 AM46 °FMostly cloudy.10 mph76%29.86 "HgN/A
6:20 AM46 °FOvercast.10 mph82%29.83 "HgN/A
5:50 AM46 °FOvercast.10 mph82%29.80 "HgN/A
5:20 AM46 °FOvercast.10 mph82%29.80 "HgN/A
8:50 PM
Mon, Apr 27
48 °FLight rain. Low clouds.15 mph94%29.65 "HgN/A
8:20 PM50 °FLight rain. Low clouds.15 mph88%29.65 "HgN/A
7:50 PM52 °FLight rain. Mostly cloudy.14 mph88%29.62 "HgN/A
7:20 PM52 °FLight rain. Overcast.18 mph88%29.62 "HgN/A
6:50 PM54 °FOvercast.15 mph88%29.62 "HgN/A
6:20 PM54 °FOvercast.15 mph88%29.62 "HgN/A
5:50 PM55 °FOvercast.15 mph82%29.62 "HgN/A
5:20 PM55 °FOvercast.13 mph88%29.62 "HgN/A
4:50 PM57 °FMore clouds than sun.14 mph82%29.59 "HgN/A
4:20 PM57 °FBroken clouds.14 mph82%29.59 "HgN/A
Weather by CustomWeather, © 2015

See weather overviewHow to use our weather pages